Home > Weather > Panama > Past weeks

Flag for Panama Past Weather in Panama, Panama — Yesterday and Last 2 Weeks

Now
79 °F

Passing clouds.


Feels Like: 83 °F
Forecast: 78 / 88 °F
Wind: 6 mph from West

Location: Panama Airport

Current Time: Jun 27, 2016 at 2:51:08 AM

Latest Report: Jun 27, 2016 at 2:00 AM


Visibility: N/A

Pressure: 29.80 "Hg

Humidity: 94%

Dew Point: 77 °F

Location of PanamaLocation

Past Weather in Panama — Graph

°F

Panama Temperature Yesterday

Maximum temperature yesterday: 91 °F (at 2:00 PM)
Minimum temperature yesterday: 73 °F (at 5:00 AM)
Average temperature yesterday: 83 °F

High & Low Weather Summary for the Past Weeks

 TemperatureHumidityPressure
High91 °F (Jun 23, 1:00 PM)100% (Jun 14, 4:00 AM)29.95 "Hg (Jun 14, 4:00 AM)
Low72 °F (Jun 14, 2:00 PM)55% (Jun 15, 4:00 PM)29.77 "Hg (Jun 26, 3:00 PM)
Average80 °F86%29.85 "Hg
* Reported Jun 12 1:00 AM — Jun 27 1:00 AM, Panama, Weather by CustomWeather, © 2016

Note: Actual official high and low records may vary slightly from our data, if they occured in-between our weather recording intervals... More about our weather records

Advertising

Panama Weather History for the Previous 24 Hours

Scroll right to see more
 ConditionsComfort  
Time TempWeatherWind HumidityBarometerVisibility
1:00 AM
Mon, Jun 27
79 °FPassing clouds.No wind94%29.80 "HgN/A
12:00 AM79 °FPassing clouds.5 mph89%29.83 "HgN/A
11:00 PM
Sun, Jun 26
81 °FPassing clouds.5 mph89%29.80 "HgN/A
10:00 PM81 °FPassing clouds.5 mph89%29.83 "HgN/A
9:00 PM81 °FPassing clouds.7 mph89%29.80 "HgN/A
8:00 PM82 °FPassing clouds.5 mph84%29.80 "HgN/A
7:00 PM84 °FPassing clouds.6 mph79%29.77 "HgN/A
6:00 PM86 °FPassing clouds.3 mph75%29.77 "HgN/A
5:00 PM88 °FScattered clouds.5 mph70%29.77 "HgN/A
4:00 PM90 °FPassing clouds.3 mph63%29.77 "HgN/A
3:00 PM90 °FPartly sunny.8 mph63%29.77 "HgN/A
2:00 PM91 °FPartly sunny.12 mph56%29.80 "HgN/A
1:00 PM90 °FPartly sunny.14 mph63%29.80 "HgN/A
12:00 PM90 °FScattered clouds.12 mph67%29.83 "Hg6 mi
11:00 AM88 °FBroken clouds.No wind70%29.86 "Hg6 mi
10:00 AM88 °FBroken clouds.No wind70%29.86 "Hg6 mi
9:00 AM84 °FBroken clouds.No wind79%29.86 "Hg6 mi
8:00 AM79 °FPartly sunny.No wind94%29.83 "Hg6 mi
7:00 AM77 °FPassing clouds.3 mph94%29.83 "Hg6 mi
6:00 AM75 °FPassing clouds.No wind94%29.83 "Hg6 mi
5:00 AM73 °FPassing clouds.No wind100%29.80 "HgN/A
4:00 AM75 °FPassing clouds.No wind100%29.83 "HgN/A
3:00 AM75 °FPassing clouds.No wind100%29.83 "HgN/A
2:00 AM75 °FPassing clouds.No wind100%29.83 "HgN/A
Weather by CustomWeather, © 2016

See weather overviewHow to use our weather pages